JLY3101 SBSP-SBRJ

Flight info

Callsign JLY3101
Flight time 0h 58m
Altitude 27000
Route NIBRU UZ171 KEVUN
Aircraft A319/M-SDE3FGHIRWY/LB1

Departure

Time 2026-05-03 22:45
Airport Congonhas–Deputado Freitas Nobre Airport (SBSP)

Arrival

Time 2026-05-03 23:44
Airport Santos Dumont Airport (SBRJ)
Time Latitude Longitude Altitude Speed Heading
2026-05-03 22:34 -23.62939 -46.65810 2600 ft 0 kts 328°
2026-05-03 22:35 -23.62948 -46.65804 2600 ft 3 kts 332°
2026-05-03 22:35 -23.62966 -46.65796 2600 ft 3 kts 353°
2026-05-03 22:35 -23.62984 -46.65797 2600 ft 3 kts 33°
2026-05-03 22:35 -23.62992 -46.65805 2600 ft 0 kts 57°
2026-05-03 22:38 -23.62990 -46.65801 2600 ft 2 kts 57°
2026-05-03 22:38 -23.62977 -46.65778 2600 ft 4 kts 57°
2026-05-03 22:39 -23.62960 -46.65749 2601 ft 5 kts 57°
2026-05-03 22:39 -23.62943 -46.65721 2601 ft 4 kts 57°
2026-05-03 22:39 -23.62923 -46.65686 2601 ft 7 kts 58°
2026-05-03 22:39 -23.62894 -46.65637 2602 ft 8 kts 55°
2026-05-03 22:40 -23.62849 -46.65628 2603 ft 8 kts 332°
2026-05-03 22:40 -23.62786 -46.65673 2603 ft 14 kts 327°
2026-05-03 22:40 -23.62690 -46.65738 2602 ft 18 kts 328°
2026-05-03 22:40 -23.62616 -46.65789 2602 ft 10 kts 327°
2026-05-03 22:41 -23.62546 -46.65838 2602 ft 12 kts 327°
2026-05-03 22:41 -23.62501 -46.65870 2602 ft 0 kts 327°
2026-05-03 22:41 -23.62499 -46.65871 2602 ft 2 kts 327°
2026-05-03 22:42 -23.62471 -46.65891 2601 ft 8 kts 328°
2026-05-03 22:42 -23.62415 -46.65929 2601 ft 10 kts 327°
2026-05-03 22:42 -23.62358 -46.65968 2600 ft 8 kts 327°
2026-05-03 22:42 -23.62309 -46.66003 2600 ft 9 kts 327°
2026-05-03 22:43 -23.62256 -46.66037 2600 ft 9 kts 333°
2026-05-03 22:43 -23.62196 -46.66072 2599 ft 10 kts 327°
2026-05-03 22:43 -23.62133 -46.66117 2599 ft 11 kts 327°
2026-05-03 22:43 -23.62054 -46.66128 2596 ft 14 kts 33°
2026-05-03 22:44 -23.62044 -46.66075 2588 ft 5 kts 154°
2026-05-03 22:44 -23.62062 -46.66066 2593 ft 0 kts 148°
2026-05-03 22:44 -23.62217 -46.65958 2600 ft 70 kts 147°
2026-05-03 22:45 -23.62874 -46.65503 2672 ft 142 kts 148°
2026-05-03 22:45 -23.63730 -46.64894 3391 ft 154 kts 146°
2026-05-03 22:45 -23.64567 -46.64053 3826 ft 176 kts 126°
2026-05-03 22:45 -23.65250 -46.62840 4206 ft 201 kts 120°
2026-05-03 22:46 -23.65953 -46.61413 4679 ft 226 kts 118°
2026-05-03 22:46 -23.66731 -46.59817 5274 ft 250 kts 118°
2026-05-03 22:46 -23.67573 -46.58109 6107 ft 261 kts 118°
2026-05-03 22:46 -23.68459 -46.56335 6933 ft 272 kts 118°
2026-05-03 22:47 -23.69388 -46.54502 7769 ft 280 kts 119°
2026-05-03 22:47 -23.70353 -46.52622 8608 ft 289 kts 120°
2026-05-03 22:47 -23.71278 -46.50635 9421 ft 299 kts 110°
2026-05-03 22:47 -23.71749 -46.48408 10291 ft 305 kts 94°
2026-05-03 22:48 -23.71664 -46.46040 10773 ft 325 kts 80°
2026-05-03 22:48 -23.71301 -46.43536 11267 ft 341 kts 80°
2026-05-03 22:48 -23.70922 -46.40954 11998 ft 348 kts 81°
2026-05-03 22:48 -23.70539 -46.38333 12802 ft 352 kts 81°
2026-05-03 22:49 -23.70154 -46.35679 13576 ft 357 kts 81°
2026-05-03 22:49 -23.69767 -46.32987 14294 ft 362 kts 81°
2026-05-03 22:49 -23.69383 -46.30296 14947 ft 366 kts 82°
2026-05-03 22:49 -23.68988 -46.27524 15576 ft 372 kts 82°
2026-05-03 22:50 -23.68591 -46.24711 16179 ft 378 kts 82°
2026-05-03 22:50 -23.68181 -46.21813 16791 ft 384 kts 82°
2026-05-03 22:50 -23.67772 -46.18951 17386 ft 390 kts 81°
2026-05-03 22:50 -23.67346 -46.16002 17972 ft 396 kts 81°
2026-05-03 22:51 -23.66912 -46.13011 18539 ft 402 kts 81°
2026-05-03 22:51 -23.66474 -46.09973 19044 ft 408 kts 82°
2026-05-03 22:51 -23.66033 -46.06898 19560 ft 413 kts 82°
2026-05-03 22:51 -23.65588 -46.03781 20081 ft 418 kts 82°
2026-05-03 22:52 -23.65132 -46.00589 20602 ft 423 kts 82°
2026-05-03 22:52 -23.64680 -45.97436 21121 ft 429 kts 82°
2026-05-03 22:52 -23.64215 -45.94209 21639 ft 434 kts 81°
2026-05-03 22:52 -23.63741 -45.90941 22163 ft 439 kts 81°
2026-05-03 22:53 -23.63260 -45.87637 22677 ft 444 kts 81°
2026-05-03 22:53 -23.62776 -45.84295 23199 ft 449 kts 81°
2026-05-03 22:53 -23.62286 -45.80916 23706 ft 454 kts 81°
2026-05-03 22:53 -23.61789 -45.77496 24151 ft 459 kts 81°
2026-05-03 22:54 -23.61288 -45.74043 24584 ft 463 kts 81°
2026-05-03 22:54 -23.60781 -45.70564 25008 ft 467 kts 81°
2026-05-03 22:54 -23.60268 -45.67051 25190 ft 470 kts 81°
2026-05-03 22:54 -23.59759 -45.63568 25239 ft 458 kts 81°
2026-05-03 22:55 -23.59267 -45.60202 25246 ft 443 kts 81°
2026-05-03 22:55 -23.58785 -45.56907 25242 ft 438 kts 80°
2026-05-03 22:55 -23.58303 -45.53635 25246 ft 436 kts 80°
2026-05-03 22:55 -23.57821 -45.50374 25248 ft 436 kts 80°
2026-05-03 22:56 -23.57337 -45.47112 25245 ft 435 kts 80°
2026-05-03 22:56 -23.56780 -45.43870 25247 ft 435 kts 77°
2026-05-03 22:56 -23.56129 -45.40650 25248 ft 435 kts 76°
2026-05-03 22:56 -23.55424 -45.37447 25242 ft 434 kts 75°
2026-05-03 22:57 -23.54698 -45.34254 25245 ft 434 kts 75°
2026-05-03 22:57 -23.53975 -45.31061 25248 ft 434 kts 75°
2026-05-03 22:57 -23.53265 -45.27862 25246 ft 434 kts 75°
2026-05-03 22:57 -23.52572 -45.24657 25243 ft 434 kts 76°
2026-05-03 22:58 -23.51894 -45.21455 25248 ft 434 kts 76°
2026-05-03 22:58 -23.51221 -45.18251 25238 ft 434 kts 76°
2026-05-03 22:58 -23.50546 -45.15044 25249 ft 434 kts 76°
2026-05-03 22:58 -23.49871 -45.11840 25242 ft 435 kts 76°
2026-05-03 22:59 -23.49190 -45.08632 25240 ft 435 kts 76°
2026-05-03 22:59 -23.48504 -45.05420 25093 ft 434 kts 76°
2026-05-03 22:59 -23.47828 -45.02271 24868 ft 432 kts 76°
2026-05-03 22:59 -23.47143 -44.99096 24641 ft 430 kts 76°
2026-05-03 23:00 -23.46460 -44.95932 24413 ft 428 kts 76°
2026-05-03 23:00 -23.45777 -44.92788 24180 ft 425 kts 76°
2026-05-03 23:00 -23.45090 -44.89669 23947 ft 421 kts 76°
2026-05-03 23:00 -23.44403 -44.86584 23461 ft 419 kts 76°
2026-05-03 23:01 -23.43716 -44.83511 22982 ft 416 kts 76°
2026-05-03 23:01 -23.43035 -44.80454 22527 ft 414 kts 76°
2026-05-03 23:01 -23.42359 -44.77418 22060 ft 412 kts 76°
2026-05-03 23:01 -23.41687 -44.74396 21604 ft 410 kts 76°
2026-05-03 23:02 -23.41016 -44.71392 21150 ft 407 kts 76°
2026-05-03 23:02 -23.40348 -44.68401 20697 ft 405 kts 76°
2026-05-03 23:02 -23.39684 -44.65428 20250 ft 403 kts 76°
2026-05-03 23:02 -23.39022 -44.62469 19811 ft 401 kts 76°
2026-05-03 23:03 -23.38363 -44.59521 19367 ft 400 kts 76°
2026-05-03 23:03 -23.37708 -44.56591 18929 ft 398 kts 76°
2026-05-03 23:03 -23.37055 -44.53675 18483 ft 396 kts 76°
2026-05-03 23:03 -23.36403 -44.50775 18011 ft 393 kts 76°
2026-05-03 23:04 -23.35756 -44.47906 17634 ft 387 kts 76°
2026-05-03 23:04 -23.35115 -44.45068 17198 ft 384 kts 76°
2026-05-03 23:04 -23.34426 -44.42282 16767 ft 380 kts 70°
2026-05-03 23:04 -23.33372 -44.39672 16424 ft 374 kts 63°
2026-05-03 23:05 -23.32269 -44.37114 16042 ft 371 kts 64°
2026-05-03 23:05 -23.31184 -44.34582 15606 ft 368 kts 64°
2026-05-03 23:05 -23.30112 -44.32080 15237 ft 364 kts 64°
2026-05-03 23:05 -23.29047 -44.29596 14913 ft 359 kts 64°
2026-05-03 23:06 -23.27996 -44.27148 14551 ft 356 kts 64°
2026-05-03 23:06 -23.26950 -44.24714 14166 ft 354 kts 64°
2026-05-03 23:06 -23.25913 -44.22304 13772 ft 350 kts 65°
2026-05-03 23:06 -23.24887 -44.19919 13381 ft 346 kts 65°
2026-05-03 23:07 -23.23873 -44.17563 12972 ft 342 kts 64°
2026-05-03 23:07 -23.22868 -44.15237 12565 ft 339 kts 64°
2026-05-03 23:07 -23.21867 -44.12918 12159 ft 336 kts 64°
2026-05-03 23:07 -23.20877 -44.10623 11725 ft 334 kts 64°
2026-05-03 23:08 -23.19896 -44.08347 11284 ft 332 kts 64°
2026-05-03 23:08 -23.18904 -44.06093 10927 ft 328 kts 63°
2026-05-03 23:08 -23.17903 -44.03901 10693 ft 319 kts 63°
2026-05-03 23:08 -23.16914 -44.01772 10460 ft 312 kts 62°
2026-05-03 23:09 -23.15943 -43.99692 10229 ft 306 kts 62°
2026-05-03 23:09 -23.15009 -43.97638 10081 ft 302 kts 63°
2026-05-03 23:09 -23.14125 -43.95599 9951 ft 302 kts 64°
2026-05-03 23:09 -23.13236 -43.93505 9827 ft 300 kts 64°
2026-05-03 23:10 -23.12371 -43.91454 9714 ft 298 kts 64°
2026-05-03 23:10 -23.11508 -43.89415 9557 ft 296 kts 64°
2026-05-03 23:10 -23.10657 -43.87416 9398 ft 295 kts 64°
2026-05-03 23:10 -23.09797 -43.85399 9245 ft 294 kts 64°
2026-05-03 23:11 -23.08935 -43.83379 9089 ft 294 kts 64°
2026-05-03 23:11 -23.08072 -43.81365 8934 ft 294 kts 64°
2026-05-03 23:11 -23.07210 -43.79353 8763 ft 294 kts 64°
2026-05-03 23:11 -23.06346 -43.77336 8623 ft 295 kts 64°
2026-05-03 23:12 -23.05482 -43.75324 8440 ft 293 kts 64°
2026-05-03 23:12 -23.04619 -43.73318 8298 ft 293 kts 64°
2026-05-03 23:12 -23.03758 -43.71318 8143 ft 292 kts 64°
2026-05-03 23:12 -23.02899 -43.69322 7972 ft 291 kts 64°
2026-05-03 23:13 -23.02040 -43.67340 7679 ft 290 kts 64°
2026-05-03 23:13 -23.01179 -43.65365 7409 ft 289 kts 64°
2026-05-03 23:13 -23.00320 -43.63400 7154 ft 287 kts 65°
2026-05-03 23:13 -22.99467 -43.61455 6923 ft 284 kts 65°
2026-05-03 23:14 -22.98615 -43.59515 6641 ft 284 kts 65°
2026-05-03 23:14 -22.97769 -43.57590 6315 ft 282 kts 65°
2026-05-03 23:14 -22.96927 -43.55679 6064 ft 280 kts 66°
2026-05-03 23:14 -22.96090 -43.53785 6031 ft 274 kts 66°
2026-05-03 23:15 -22.95296 -43.51990 6040 ft 255 kts 66°
2026-05-03 23:15 -22.94553 -43.50308 6039 ft 240 kts 67°
2026-05-03 23:15 -22.93867 -43.48710 5980 ft 230 kts 67°
2026-05-03 23:15 -22.93204 -43.47138 5619 ft 228 kts 67°
2026-05-03 23:16 -22.92553 -43.45590 5293 ft 224 kts 67°
2026-05-03 23:16 -22.91919 -43.44088 5009 ft 213 kts 68°
2026-05-03 23:16 -22.91322 -43.42674 4796 ft 200 kts 68°
2026-05-03 23:16 -22.90757 -43.41338 4634 ft 189 kts 68°
2026-05-03 23:17 -22.90223 -43.40076 4541 ft 178 kts 68°
2026-05-03 23:17 -22.89707 -43.38848 4444 ft 180 kts 68°
2026-05-03 23:17 -22.89189 -43.37619 4296 ft 179 kts 69°
2026-05-03 23:17 -22.88687 -43.36401 4159 ft 176 kts 74°
2026-05-03 23:18 -22.88409 -43.35121 4084 ft 173 kts 86°
2026-05-03 23:18 -22.88401 -43.33855 3838 ft 169 kts 99°
2026-05-03 23:18 -22.88525 -43.32592 3594 ft 168 kts 101°
2026-05-03 23:18 -22.88644 -43.31330 3364 ft 167 kts 100°
2026-05-03 23:19 -22.88761 -43.30086 3149 ft 164 kts 100°
2026-05-03 23:19 -22.88875 -43.28851 2937 ft 164 kts 99°
2026-05-03 23:19 -22.88986 -43.27646 2731 ft 158 kts 99°
2026-05-03 23:19 -22.89153 -43.26497 2530 ft 150 kts 110°
2026-05-03 23:20 -22.89553 -43.25491 2344 ft 143 kts 119°
2026-05-03 23:20 -22.89984 -43.24532 2165 ft 140 kts 119°
2026-05-03 23:20 -22.90399 -43.23606 1981 ft 133 kts 119°
2026-05-03 23:20 -22.90668 -43.23006 1859 ft 130 kts 119°
2026-05-03 23:21 -22.91061 -43.22128 1687 ft 129 kts 119°
2026-05-03 23:21 -22.91453 -43.21254 1515 ft 129 kts 118°
2026-05-03 23:21 -22.91841 -43.20384 1350 ft 127 kts 118°
2026-05-03 23:21 -22.92366 -43.19660 1144 ft 123 kts 144°
2026-05-03 23:22 -22.93878 -43.18880 830 ft 121 kts 162°
2026-05-03 23:22 -22.94564 -43.18342 619 ft 127 kts 127°
2026-05-03 23:22 -22.94785 -43.17412 694 ft 135 kts 82°
2026-05-03 23:23 -22.94247 -43.16595 849 ft 141 kts 31°
2026-05-03 23:23 -22.93306 -43.16230 568 ft 143 kts 10°
2026-05-03 23:23 -22.92354 -43.16143 380 ft 134 kts 357°
2026-05-03 23:23 -22.91403 -43.16206 678 ft 143 kts 355°
2026-05-03 23:24 -22.90343 -43.16278 1238 ft 165 kts 356°
2026-05-03 23:24 -22.89190 -43.16054 1930 ft 179 kts 32°
2026-05-03 23:24 -22.88479 -43.14934 2439 ft 189 kts 82°
2026-05-03 23:24 -22.88696 -43.13564 3137 ft 187 kts 124°
2026-05-03 23:25 -22.89738 -43.12707 3694 ft 198 kts 166°
2026-05-03 23:25 -22.91103 -43.12444 4588 ft 200 kts 171°
2026-05-03 23:25 -22.92488 -43.12180 5496 ft 204 kts 170°
2026-05-03 23:25 -22.93911 -43.11891 5890 ft 210 kts 169°
2026-05-03 23:26 -22.95343 -43.11594 6012 ft 209 kts 170°
2026-05-03 23:26 -22.96766 -43.11277 6035 ft 208 kts 170°
2026-05-03 23:26 -22.98181 -43.10946 6045 ft 207 kts 169°
2026-05-03 23:26 -22.99595 -43.10664 6042 ft 206 kts 180°
2026-05-03 23:27 -23.00895 -43.11186 6037 ft 205 kts 225°
2026-05-03 23:27 -23.01459 -43.12570 6083 ft 208 kts 271°
2026-05-03 23:27 -23.01279 -43.14129 5999 ft 210 kts 283°
2026-05-03 23:27 -23.01096 -43.15700 6094 ft 211 kts 280°
2026-05-03 23:28 -23.00940 -43.17286 6167 ft 212 kts 280°
2026-05-03 23:28 -23.00773 -43.18948 6181 ft 242 kts 279°
2026-05-03 23:28 -23.00564 -43.20872 6171 ft 265 kts 279°
2026-05-03 23:28 -23.00339 -43.22878 6167 ft 269 kts 279°
2026-05-03 23:29 -23.00110 -43.24900 6171 ft 270 kts 280°
2026-05-03 23:29 -22.99901 -43.26925 6170 ft 271 kts 275°
2026-05-03 23:29 -23.00005 -43.28981 6170 ft 274 kts 267°
2026-05-03 23:29 -23.00183 -43.31043 6172 ft 274 kts 267°
2026-05-03 23:30 -23.00376 -43.33072 6172 ft 274 kts 267°
2026-05-03 23:30 -23.00578 -43.35152 6172 ft 274 kts 267°
2026-05-03 23:30 -23.00787 -43.37205 6174 ft 274 kts 264°
2026-05-03 23:30 -23.01216 -43.39181 6167 ft 261 kts 255°
2026-05-03 23:31 -23.01816 -43.40977 6170 ft 247 kts 252°
2026-05-03 23:31 -23.02424 -43.42674 6172 ft 233 kts 252°
2026-05-03 23:31 -23.03003 -43.44260 6174 ft 222 kts 252°
2026-05-03 23:31 -23.03572 -43.45806 6173 ft 220 kts 252°
2026-05-03 23:32 -23.04139 -43.47350 6175 ft 220 kts 252°
2026-05-03 23:32 -23.04706 -43.48890 6172 ft 220 kts 252°
2026-05-03 23:32 -23.05195 -43.50453 6167 ft 217 kts 265°
2026-05-03 23:32 -23.05081 -43.52041 6174 ft 210 kts 293°
2026-05-03 23:33 -23.04315 -43.53353 6148 ft 206 kts 319°
2026-05-03 23:33 -23.03101 -43.54121 6044 ft 204 kts 345°
2026-05-03 23:33 -23.01686 -43.54197 5945 ft 205 kts 11°
2026-05-03 23:33 -23.00353 -43.53640 5845 ft 206 kts 22°
2026-05-03 23:34 -22.99044 -43.52996 5745 ft 207 kts 22°
2026-05-03 23:34 -22.97732 -43.52358 5653 ft 207 kts 22°
2026-05-03 23:34 -22.96443 -43.51704 5564 ft 200 kts 27°
2026-05-03 23:34 -22.95344 -43.50846 5567 ft 193 kts 40°
2026-05-03 23:35 -22.94446 -43.49761 5464 ft 195 kts 51°
2026-05-03 23:35 -22.93792 -43.48498 5277 ft 195 kts 63°
2026-05-03 23:35 -22.93233 -43.47153 5088 ft 196 kts 63°
2026-05-03 23:35 -22.92675 -43.45827 4958 ft 189 kts 63°
2026-05-03 23:36 -22.92134 -43.44546 4759 ft 184 kts 62°
2026-05-03 23:36 -22.91606 -43.43298 4580 ft 179 kts 62°
2026-05-03 23:36 -22.91096 -43.42094 4421 ft 172 kts 62°
2026-05-03 23:36 -22.90604 -43.40936 4271 ft 165 kts 61°
2026-05-03 23:37 -22.90134 -43.39830 4137 ft 159 kts 61°
2026-05-03 23:37 -22.89678 -43.38760 3990 ft 154 kts 61°
2026-05-03 23:37 -22.89240 -43.37729 3864 ft 148 kts 61°
2026-05-03 23:37 -22.88810 -43.36716 3730 ft 147 kts 61°
2026-05-03 23:38 -22.88474 -43.35665 3602 ft 149 kts 73°
2026-05-03 23:38 -22.88365 -43.34543 3437 ft 151 kts 87°
2026-05-03 23:38 -22.88458 -43.33400 3243 ft 152 kts 92°
2026-05-03 23:38 -22.88566 -43.32256 3044 ft 152 kts 92°
2026-05-03 23:39 -22.88671 -43.31115 2851 ft 152 kts 92°
2026-05-03 23:39 -22.88776 -43.29982 2663 ft 151 kts 92°
2026-05-03 23:39 -22.88880 -43.28851 2469 ft 150 kts 92°
2026-05-03 23:39 -22.88983 -43.27727 2279 ft 150 kts 92°
2026-05-03 23:40 -22.89126 -43.26610 2085 ft 150 kts 102°
2026-05-03 23:40 -22.89526 -43.25555 1885 ft 152 kts 114°
2026-05-03 23:40 -22.89990 -43.24527 1692 ft 152 kts 114°
2026-05-03 23:40 -22.90451 -43.23497 1484 ft 151 kts 114°
2026-05-03 23:41 -22.90899 -43.22495 1298 ft 143 kts 114°
2026-05-03 23:41 -22.91327 -43.21536 1100 ft 139 kts 114°
2026-05-03 23:41 -22.91747 -43.20602 963 ft 137 kts 114°
2026-05-03 23:41 -22.92277 -43.19747 950 ft 138 kts 136°
2026-05-03 23:42 -22.93096 -43.19200 851 ft 139 kts 155°
2026-05-03 23:42 -22.93977 -43.18784 630 ft 137 kts 158°
2026-05-03 23:42 -22.94636 -43.18100 470 ft 136 kts 110°
2026-05-03 23:42 -22.94556 -43.17110 404 ft 133 kts 54°
2026-05-03 23:43 -22.93875 -43.16508 283 ft 127 kts 27°
2026-05-03 23:43 -22.93055 -43.16179 214 ft 125 kts 10°
2026-05-03 23:43 -22.92190 -43.16203 127 ft 125 kts 354°
2026-05-03 23:43 -22.91335 -43.16265 23 ft 115 kts 356°
2026-05-03 23:44 -22.90799 -43.16301 25 ft 42 kts 356°
2026-05-03 23:44 -22.90568 -43.16316 24 ft 15 kts 355°
2026-05-03 23:44 -22.90493 -43.16356 24 ft 12 kts 293°
2026-05-03 23:44 -22.90495 -43.16440 23 ft 14 kts 266°
2026-05-03 23:45 -22.90503 -43.16536 25 ft 11 kts 250°
2026-05-03 23:45 -22.90577 -43.16553 24 ft 12 kts 176°
2026-05-03 23:45 -22.90681 -43.16548 22 ft 17 kts 177°
2026-05-03 23:45 -22.90805 -43.16543 22 ft 18 kts 187°
2026-05-03 23:46 -22.90922 -43.16545 22 ft 17 kts 175°
2026-05-03 23:46 -22.91032 -43.16537 22 ft 13 kts 178°
2026-05-03 23:46 -22.91121 -43.16521 22 ft 10 kts 164°
2026-05-03 23:46 -22.91157 -43.16519 22 ft 2 kts 206°
2026-05-03 23:47 -22.91166 -43.16547 22 ft 7 kts 261°
2026-05-03 23:47 -22.91168 -43.16580 22 ft 3 kts 266°
2026-05-03 23:47 -22.91169 -43.16584 22 ft 0 kts 266°